Notices

What's New in latest Release from April 7th, 2021:

- Updated Glossary, including Speed of Maximum Gust, and Total Hourly Precipitation

- Updated national and regional climate services offices contacts and prices information

- Addition of station inventory lists for 1981-2010, 1971-2000, and 1961-1990 Normals.

If you haven't already, please take our survey and provide feedback about our website: https://eccc.sondage-survey.ca/f/LanguageSelection.aspx?s=442ca660-fcf1-47c0-95a9-59707d6fd709

Hourly Data Report for October 13, 2019

SAINT JOHN A
NEW BRUNSWICK
Current Station Operator: NAVCAN

45°18'58.000" N
65°53'24.000" W
108.80 m
8104901
71609
YSJ

Download Data

Hourly Data (October 2019)
Hourly Data Report for October 13, 2019
TIME
LST
Temp Definition
°C
Dew Point Definition
°C
Rel Hum Definition
%
Precip. Amount Definition
mm

Wind Dir Definition
10's deg

Wind Spd Definition
km/h
Visibility Definition
km
Stn Press Definition
kPa
Hmdx Definition


Wind Chill Definition


Weather Definition


00:00 9.6 9.2 97   36 15 4.8 99.84     Drizzle,Fog
01:00 9.4 8.9 96   36 15 8.1 99.86     Drizzle,Fog
02:00 9.2 8.8 97   36 17 4.8 99.87     Drizzle,Fog
03:00 8.7 8.2 97   36 17 4.8 99.87     Drizzle,Fog
04:00 8.5 7.8 95   36 17 12.9 99.91     LegendNANA
05:00 8.3 7.5 95   36 16 16.1 99.94     Cloudy
06:00 8.0 7.6 97   35 15 16.1 100.03     LegendNANA
07:00 7.9 7.1 94   36 26 16.1 100.09     LegendNANA
08:00 8.1 7.3 95   1 21 24.1 100.15     Cloudy
09:00 8.5 7.6 94   36 17 24.1 100.21     LegendNANA
10:00 8.9 7.8 93   35 14 24.1 100.23     LegendNANA
11:00 9.6 7.6 87   35 15 24.1 100.24     Mostly Cloudy
12:00 12.3 8.7 79   2 10 24.1 100.22     LegendNANA
13:00 13.3 8.2 71   30 9 24.1 100.20     LegendNANA
14:00 15.0 9.3 68   34 13 24.1 100.18     Mostly Cloudy
15:00 15.0 8.9 67   33 6 24.1 100.20     LegendNANA
16:00 15.5 9.8 68   4 7 24.1 100.20     LegendNANA
17:00 12.3 9.5 83   19 16 24.1 100.22     Mostly Cloudy
18:00 10.0 8.8 92   18 8 24.1 100.27     LegendNANA
19:00 9.7 8.7 94   17 6 24.1 100.33     LegendNANA
20:00 8.1 7.7 98   20 5 24.1 100.37     Mainly Clear
21:00 6.2 6.0 98   36 2 24.1 100.42     LegendNANA
22:00 6.7 6.5 99   36 2 8.1 100.41     LegendNANA
23:00 5.6 5.4 99   36 3 1.2 100.42     Mainly Clear

Notes on Data Quality.

Legend

  • E = Estimated
  • M = Missing
  • NA = Not Available*
  • [empty] = Indicates an unobserved value
Date modified: